SCP
-0 0 0 0 0 0 0 0 0 0 0 -0 -0 0 0 -0 -0 -0 -0 -0 0 -0 -0 -0 -0 0 0 0 0 0 0 0 0 0 0 0 0 0 0 0 0 0 0 0
0 0 0 0 0 0 0 0 0 -0 -0 -0 0 0 0 -0 -0 -1 -0 -0 -0 0 0 -0 -0 0 0 0 0 0 0 0 0 0 0 0 0 0 0 0 0 0 0 0
0 0 0 0 0 0 0 0 0 0 0 0 0 -0 0 -0 -0 -0 -0 -0 -0 0 0 0 0 0 0 0 0 0 0 0 0 0 0 0 0 0 0 0 0 0 0 0
0 0 0 0 0 0 0 0 0 0 0 0 -0 0 0 0 -0 -0 -0 -0 -0 0 0 0 0 0 0 0 0 0 0 0 0 0 0 0 0 0 0 0 0 0 0 0
0 0 0 0 0 0 0 0 0 0 0 0 0 0 0 0 0 -0 -0 0 0 0 1 0 0 0 0 0 0 0 0 0 0 0 0 0 0 0 0 0 0 0 0 0
0 0 0 0 0 0 0 0 0 0 0 0 0 0 0 0 0 0 0 0 -0 -0 -0 0 0 0 0 0 0 0 0 0 0 0 0 0 0 0 0 0 0 0 0 0
0 0 0 0 0 0 0 0 0 0 0 0 0 0 0 0 0 0 0 0 -0 1 1 0 0 0 0 0 0 0 0 0 0 0 0 0 0 0 0 0 0 0 0 0
0 0 0 0 0 0 0 0 0 0 0 0 0 0 0 0 1 1 0 1 1 2 1 0 0 0 0 0 0 0 0 0 0 0 0 0 0 0 0 0 0 0 0 0
0 0 0 0 0 0 0 0 0 0 0 0 0 0 1 0 0 1 1 2 2 2 1 1 0 0 0 0 0 0 0 0 0 0 0 0 0 0 0 0 0 0 0 0
0 0 0 0 0 0 0 0 0 0 0 0 0 0 1 1 1 1 2 2 1 1 0 0 0 0 0 0 0 0 0 0 0 0 0 0 0 0 0 0 0 0 0 0
0 0 0 0 0 0 0 0 0 0 0 0 0 0 1 1 1 1 2 1 1 1 1 0 0 0 0 0 0 0 0 0 0 0 0 0 0 0 0 0 0 0 0 0
0 0 0 0 0 0 0 0 0 0 0 0 0 1 1 1 1 1 1 0 1 0 0 0 0 0 0 0 0 0 0 0 0 0 0 0 0 0 0 0 0 0 0 0
0 0 0 0 0 0 0 0 -0 -0 0 0 0 1 0 0 0 0 0 0 0 0 0 0 0 0 0 0 0 0 0 0 0 0 0 0 0 0 0 0 0 0 0 0
0 0 0 0 0 0 0 0 -0 -0 -0 -0 0 0 0 0 0 0 0 0 0 0 0 0 0 0 0 0 0 0 0 0 0 0 0 0 0 0 0 0 0 0 0 0
0 0 0 0 0 0 0 0 -0 -0 -0 0 0 0 0 0 0 0 0 0 0 0 0 0 0 0 0 0 0 0 0 0 0 0 0 0 0 0 0 0 0 0 0 0
0 0 0 0 0 0 0 0 0 0 0 0 0 0 0 0 0 0 0 0 0 0 0 0 0 0 0 0 0 0 0 0 0 0 0 0 0 0 0 0 0 0 0 0
0 0 0 0 0 0 -0 0 0 0 0 0 0 0 0 0 0 0 0 0 0 0 0 0 0 0 0 0 0 0 0 0 0 0 0 0 0 0 0 0 0 0 0 0
0 0 0 0 0 0 -0 -0 0 0 0 0 0 0 0 0 0 0 0 0 0 0 0 0 0 0 0 0 0 0 0 0 0 0 0 0 0 0 0 0 0 0 0 0
0 0 0 0 0 0 -0 0 0 0 0 0 0 0 0 0 0 0 0 0 0 0 0 0 0 0 0 0 0 0 0 0 0 0 0 0 0 0 0 0 0 0 0 0
0 0 0 0 0 0 0 0 0 0 0 0 0 0 0 0 0 0 0 0 0 0 0 0 0 0 0 0 0 0 0 0 0 0 0 0 0 0 0 0 0 0 0 0
0 0 0 0 0 0 0 0 0 0 0 -0 0 0 -0 -0 0 0 0 0 0 0 0 0 0 0 0 0 0 0 0 0 0 0 0 0 0 0 0 0 0 0 0 0
-0 -0 0 0 0 0 0 0 -0 -0 -0 -0 0 0 -0 -0 -0 -0 -0 0 0 -0 0 0 0 0 0 0 0 0 0 0 0 0 0 0 0 0 0 0 0 0 0 0
0 0 0 0 0 0 0 0 -0 -0 -0 -0 -0 -0 -0 -0 -0 -0 -0 0 -0 -0 -0 0 0 -0 0 0 0 0 0 0 0 0 0 0 0 0 0 0 0 0 0 0
0 0 0 0 0 0 0 0 -0 -0 0 0 -0 -0 -0 -0 -0 -0 0 0 -0 -0 0 0 0 -0 0 0 0 0 0 -0 -0 -0 0 0 0 0 0 0 0 0 0 0
0 0 0 0 0 0 0 0 0 0 0 -0 -0 -0 -0 0 0 0 0 0 -0 -0 -0 -0 -0 -0 0 0 0 0 -0 -0 -0 0 0 0 0 0 0 0 0 0 0 0
0 0 0 -0 0 0 0 0 0 0 0 0 0 0 0 0 0 0 0 0 -0 -0 -0 -0 -0 0 0 0 0 -0 -0 -0 0 0 0 0 0 0 0 0 0 0 0 0
0 0 0 0 0 0 0 0 0 0 0 0 0 0 0 0 0 0 -0 -0 -0 -0 -0 -0 0 0 0 0 -0 -0 -0 -0 0 0 0 0 0 0 0 0 0 0 0 0
Wind_Speed_500mb
24 15 10 9 18 23 24 20 13 16 13 30 28 17 35 43 33 28 30 31 34 45 55 53 49 46 44 45 43 39 39 37 33 28 24 21 16 10 8 7 8 9 11 13
13 13 13 11 12 17 22 10 24 26 30 28 21 15 24 51 46 41 39 39 38 47 50 51 48 46 45 44 43 39 36 32 29 27 24 18 11 7 6 8 10 12 14 15
7 11 18 11 24 24 19 16 22 16 18 8 13 14 20 38 48 43 46 46 46 48 50 48 44 41 43 40 36 31 27 24 23 19 13 9 6 2 2 8 11 12 13 13
6 12 13 5 4 10 17 25 27 25 24 20 26 16 12 35 56 47 48 50 51 49 49 44 41 41 41 36 33 28 24 20 16 10 5 8 3 2 6 10 13 14 12 8
6 9 5 6 8 7 7 14 9 26 25 19 12 8 15 34 50 55 57 53 53 50 47 43 42 41 38 36 32 26 21 18 11 2 6 7 6 10 12 11 7 3 1 3
5 8 16 4 7 4 5 12 9 9 18 18 12 10 11 50 47 40 42 46 52 51 44 40 41 37 36 34 29 24 20 12 6 2 5 5 8 11 7 5 5 3 2 2
8 7 7 9 8 14 10 6 12 13 22 20 19 13 30 40 40 39 48 52 50 46 41 39 37 36 34 28 26 24 19 12 5 5 5 6 8 5 5 5 2 2 4 6
4 6 12 18 13 14 4 9 16 20 24 25 35 31 23 44 47 51 51 50 47 47 42 34 34 35 33 31 27 25 20 11 6 4 5 5 3 6 6 4 5 9 12 16
12 4 1 19 16 13 13 15 19 22 25 22 25 27 15 28 39 52 53 53 51 51 45 38 38 36 37 35 33 25 20 12 7 5 3 3 4 5 8 12 14 14 15 19
4 8 18 27 29 26 17 14 25 26 25 20 22 21 16 22 29 35 46 51 53 53 50 48 46 41 34 32 28 25 19 13 8 7 6 6 5 7 9 10 13 17 17 18
11 22 28 36 22 19 18 17 23 22 16 17 14 16 19 27 37 40 46 54 55 54 51 44 30 36 36 31 29 24 16 9 8 10 11 8 10 11 8 10 13 15 19 27
9 10 5 10 12 7 14 18 18 16 13 10 13 11 17 24 33 40 46 52 56 54 44 37 22 35 34 29 22 17 12 10 14 11 11 9 10 8 9 11 18 21 28 24
17 22 28 33 27 19 7 16 13 9 12 8 11 16 20 25 30 36 44 45 45 34 41 36 43 40 34 24 19 15 14 17 16 14 8 8 5 5 7 13 25 25 25 21
44 38 29 34 20 15 6 9 12 11 5 1 6 12 14 17 24 31 40 44 48 37 30 39 34 33 29 22 18 18 20 18 12 7 4 2 7 10 8 20 18 19 21 30
40 35 48 24 23 17 7 4 10 14 9 4 6 10 16 22 32 39 47 47 43 41 40 37 39 35 26 24 26 25 19 13 7 2 4 5 8 2 14 22 19 20 25 31
23 21 25 37 27 24 26 23 12 10 2 7 16 22 24 33 46 50 51 47 38 29 37 41 36 29 27 30 28 21 16 16 15 10 5 4 3 10 14 19 21 25 29 34
27 23 17 26 20 24 26 29 22 20 13 21 30 47 51 49 43 42 43 40 21 27 35 31 28 29 33 29 23 19 22 15 14 10 10 8 10 14 19 19 25 29 33 35
41 40 35 21 12 10 11 16 21 23 25 43 53 49 47 42 41 34 35 27 32 38 33 30 29 33 33 26 21 21 17 11 14 9 8 8 15 17 17 21 24 27 33 39
21 30 31 23 14 8 13 17 26 31 38 47 39 34 26 22 29 34 39 34 44 47 45 39 34 32 32 27 22 19 16 9 10 9 6 14 12 13 15 18 22 27 30 36
8 22 25 20 15 17 20 23 39 40 46 42 37 37 35 26 20 33 30 40 44 43 42 36 36 36 33 27 18 13 7 1 5 5 7 10 12 16 16 20 24 28 31 35
23 7 22 24 19 19 23 27 39 50 57 58 32 35 52 46 37 33 40 46 42 38 34 34 36 37 32 23 15 11 6 3 4 3 5 10 16 15 19 25 31 36 39 43
32 34 10 21 26 29 32 31 43 58 56 49 49 57 52 49 38 40 39 41 42 39 44 42 40 36 27 19 14 8 6 5 12 4 10 13 12 18 25 33 41 48 54 56
25 25 28 7 16 21 26 33 43 59 52 58 51 60 51 46 47 54 51 43 39 44 46 44 41 32 22 14 9 7 13 15 12 15 13 7 14 24 34 43 49 54 57 52
24 22 22 15 9 18 23 24 39 58 62 60 50 43 50 56 55 51 46 41 40 44 45 45 37 25 15 13 14 13 14 15 18 13 4 11 23 33 41 48 51 53 52 49
11 11 20 13 9 16 23 27 38 45 48 42 39 46 50 55 52 51 40 39 44 44 44 38 28 21 17 17 12 15 18 22 13 2 10 21 29 36 43 50 54 51 48 47
15 13 10 17 15 21 25 34 45 46 44 48 51 51 53 53 45 42 40 49 46 43 40 36 29 22 16 15 15 23 25 13 2 7 16 23 31 39 46 52 52 47 43 45
17 5 3 4 9 17 28 40 50 53 53 53 56 56 54 52 45 46 50 50 47 44 37 31 25 19 18 21 31 29 14 5 7 12 18 27 34 40 48 49 48 44 44 44
Wind_Direction_500mb
220 227 201 197 192 185 205 221 224 304 246 279 283 270 200 193 186 177 167 163 165 161 157 154 149 146 144 140 138 142 148 151 152 154 158 162 163 175 207 235 260 282 292 298
223 204 205 232 210 201 231 253 253 266 277 273 286 273 195 188 182 181 175 170 169 163 158 158 157 153 148 146 147 149 150 149 150 157 155 157 169 199 237 261 282 287 291 299
228 166 162 217 227 215 226 216 233 226 248 270 264 253 226 208 191 180 180 174 170 167 165 165 163 159 154 148 144 145 148 152 152 152 149 135 140 151 288 298 297 295 297 305
121 170 198 121 219 201 222 250 248 256 256 262 276 278 227 202 194 192 183 176 174 171 170 168 164 155 156 150 149 149 143 143 152 159 119 79 38 3 321 306 304 301 302 305
186 202 325 209 179 210 224 278 265 258 285 298 266 222 245 204 197 195 190 183 178 175 172 168 164 164 161 154 153 150 146 150 147 121 13 1 339 331 319 309 308 293 94 66
160 211 222 189 139 122 207 254 83 345 303 290 198 226 230 192 188 187 186 178 175 172 170 169 169 168 165 161 161 162 166 176 179 353 328 326 329 330 351 40 96 91 25 19
167 235 270 187 157 146 203 277 335 309 295 257 219 283 313 190 178 177 181 182 178 174 176 177 171 170 171 169 174 181 183 193 194 274 274 321 344 28 65 81 105 41 28 5
152 213 244 148 140 207 26 321 313 313 301 265 239 273 310 190 178 176 183 184 181 180 183 181 179 177 180 182 189 186 190 199 226 227 294 325 38 63 57 31 1 334 318 306
223 247 131 197 246 240 303 305 321 322 319 293 252 240 262 195 190 182 185 186 187 189 188 185 185 187 189 186 189 191 190 197 214 256 252 140 125 63 40 351 335 328 317 312
286 218 252 256 253 263 277 298 321 313 309 294 273 252 240 203 184 181 182 188 190 189 191 186 188 185 195 191 183 184 190 204 228 224 161 149 114 68 27 358 333 324 321 321
265 276 284 277 279 272 279 297 321 328 321 294 288 242 227 205 198 194 191 195 192 191 192 183 192 188 180 181 181 186 197 203 202 168 126 109 74 30 32 8 350 341 327 324
262 354 291 333 349 325 330 339 330 319 335 279 264 254 211 205 199 198 196 197 192 187 180 150 145 196 179 176 181 193 189 182 164 139 120 88 63 66 11 9 344 331 328 330
266 290 298 289 297 310 327 356 9 342 331 326 261 224 214 210 204 203 197 194 189 181 149 166 170 178 172 178 187 181 161 164 148 126 90 67 86 352 348 341 339 331 331 337
276 274 276 259 265 257 324 15 20 18 30 57 231 208 207 204 185 181 188 178 156 144 161 165 154 168 168 172 171 162 150 140 132 103 58 34 341 325 350 339 323 322 334 341
281 267 268 246 256 253 263 35 10 2 11 50 167 179 178 172 166 160 160 142 145 145 161 170 167 172 160 155 148 145 140 131 125 134 332 294 302 280 342 334 317 318 327 331
313 315 288 237 237 239 256 256 268 290 341 160 162 170 158 155 150 148 144 146 160 165 170 173 167 154 152 149 148 146 135 116 98 70 16 7 69 352 321 314 320 316 320 326
269 265 284 256 235 249 259 254 239 237 195 174 164 147 139 139 141 145 140 139 143 161 175 175 166 156 152 151 146 149 133 119 77 64 105 87 356 327 310 320 320 318 318 320
256 258 261 258 264 260 233 216 204 196 175 163 156 158 158 163 166 169 171 165 157 171 185 178 176 159 157 154 150 141 137 97 44 95 90 9 342 325 319 325 325 322 324 324
247 235 233 233 229 220 190 187 186 181 177 171 178 187 193 198 197 200 183 184 193 180 179 174 165 162 158 159 152 137 137 83 63 93 28 347 357 354 350 341 336 331 334 335
293 221 209 210 196 200 190 179 177 183 178 181 167 170 178 192 192 187 183 180 182 186 180 172 169 164 164 170 167 170 176 109 76 78 354 347 5 359 358 6 5 355 340 334
25 308 208 199 206 203 205 195 185 179 170 174 173 156 141 139 172 190 181 182 184 180 180 178 170 171 180 186 195 221 201 269 155 168 343 34 48 36 19 2 352 342 334 331
14 25 331 206 202 221 220 212 198 190 195 197 192 183 175 177 184 182 187 190 182 181 181 177 174 176 183 195 195 200 247 227 170 160 93 75 43 6 350 345 341 339 337 337
356 3 17 298 204 210 216 204 205 201 201 201 199 202 202 205 191 178 187 190 190 181 178 177 176 181 186 186 210 199 159 172 160 127 109 46 349 344 340 339 341 343 341 337
358 356 349 353 270 210 176 181 186 202 209 210 208 207 192 182 181 187 191 189 186 179 175 176 180 183 184 190 163 160 173 166 142 131 73 348 343 340 339 337 339 339 339 340
344 342 350 330 275 222 176 173 188 188 196 202 189 178 180 183 182 183 186 182 179 178 178 177 182 187 185 174 166 183 170 154 146 121 340 343 339 336 336 337 340 337 339 340
330 335 314 324 257 214 189 176 181 177 180 177 173 177 179 182 187 186 180 175 175 181 182 182 183 182 181 178 183 169 156 151 134 338 334 333 332 334 337 341 339 338 339 342
349 357 335 316 222 198 198 183 179 177 181 180 176 177 179 181 183 187 177 176 173 174 174 174 173 175 180 177 166 160 162 203 294 319 321 325 332 336 339 344 344 343 342 343
Wind_Speed_850mb
24 15 10 9 18 23 24 20 13 16 13 30 28 17 35 43 33 28 30 31 34 45 55 53 49 46 44 45 43 39 39 37 33 28 24 21 16 10 8 7 8 9 11 13
13 13 13 11 12 17 22 10 24 26 30 28 21 15 24 51 46 41 39 39 38 47 50 51 48 46 45 44 43 39 36 32 29 27 24 18 11 7 6 8 10 12 14 15
7 11 18 11 24 24 19 16 22 16 18 8 13 14 20 38 48 43 46 46 46 48 50 48 44 41 43 40 36 31 27 24 23 19 13 9 6 2 2 8 11 12 13 13
6 12 13 5 4 10 17 25 27 25 24 20 26 16 12 35 56 47 48 50 51 49 49 44 41 41 41 36 33 28 24 20 16 10 5 8 3 2 6 10 13 14 12 8
6 9 5 6 8 7 7 14 9 26 25 19 12 8 15 34 50 55 57 53 53 50 47 43 42 41 38 36 32 26 21 18 11 2 6 7 6 10 12 11 7 3 1 3
5 8 16 4 7 4 5 12 9 9 18 18 12 10 11 50 47 40 42 46 52 51 44 40 41 37 36 34 29 24 20 12 6 2 5 5 8 11 7 5 5 3 2 2
8 7 7 9 8 14 10 6 12 13 22 20 19 13 30 40 40 39 48 52 50 46 41 39 37 36 34 28 26 24 19 12 5 5 5 6 8 5 5 5 2 2 4 6
4 6 12 18 13 14 4 9 16 20 24 25 35 31 23 44 47 51 51 50 47 47 42 34 34 35 33 31 27 25 20 11 6 4 5 5 3 6 6 4 5 9 12 16
12 4 1 19 16 13 13 15 19 22 25 22 25 27 15 28 39 52 53 53 51 51 45 38 38 36 37 35 33 25 20 12 7 5 3 3 4 5 8 12 14 14 15 19
4 8 18 27 29 26 17 14 25 26 25 20 22 21 16 22 29 35 46 51 53 53 50 48 46 41 34 32 28 25 19 13 8 7 6 6 5 7 9 10 13 17 17 18
11 22 28 36 22 19 18 17 23 22 16 17 14 16 19 27 37 40 46 54 55 54 51 44 30 36 36 31 29 24 16 9 8 10 11 8 10 11 8 10 13 15 19 27
9 10 5 10 12 7 14 18 18 16 13 10 13 11 17 24 33 40 46 52 56 54 44 37 22 35 34 29 22 17 12 10 14 11 11 9 10 8 9 11 18 21 28 24
17 22 28 33 27 19 7 16 13 9 12 8 11 16 20 25 30 36 44 45 45 34 41 36 43 40 34 24 19 15 14 17 16 14 8 8 5 5 7 13 25 25 25 21
44 38 29 34 20 15 6 9 12 11 5 1 6 12 14 17 24 31 40 44 48 37 30 39 34 33 29 22 18 18 20 18 12 7 4 2 7 10 8 20 18 19 21 30
40 35 48 24 23 17 7 4 10 14 9 4 6 10 16 22 32 39 47 47 43 41 40 37 39 35 26 24 26 25 19 13 7 2 4 5 8 2 14 22 19 20 25 31
23 21 25 37 27 24 26 23 12 10 2 7 16 22 24 33 46 50 51 47 38 29 37 41 36 29 27 30 28 21 16 16 15 10 5 4 3 10 14 19 21 25 29 34
27 23 17 26 20 24 26 29 22 20 13 21 30 47 51 49 43 42 43 40 21 27 35 31 28 29 33 29 23 19 22 15 14 10 10 8 10 14 19 19 25 29 33 35
41 40 35 21 12 10 11 16 21 23 25 43 53 49 47 42 41 34 35 27 32 38 33 30 29 33 33 26 21 21 17 11 14 9 8 8 15 17 17 21 24 27 33 39
21 30 31 23 14 8 13 17 26 31 38 47 39 34 26 22 29 34 39 34 44 47 45 39 34 32 32 27 22 19 16 9 10 9 6 14 12 13 15 18 22 27 30 36
8 22 25 20 15 17 20 23 39 40 46 42 37 37 35 26 20 33 30 40 44 43 42 36 36 36 33 27 18 13 7 1 5 5 7 10 12 16 16 20 24 28 31 35
23 7 22 24 19 19 23 27 39 50 57 58 32 35 52 46 37 33 40 46 42 38 34 34 36 37 32 23 15 11 6 3 4 3 5 10 16 15 19 25 31 36 39 43
32 34 10 21 26 29 32 31 43 58 56 49 49 57 52 49 38 40 39 41 42 39 44 42 40 36 27 19 14 8 6 5 12 4 10 13 12 18 25 33 41 48 54 56
25 25 28 7 16 21 26 33 43 59 52 58 51 60 51 46 47 54 51 43 39 44 46 44 41 32 22 14 9 7 13 15 12 15 13 7 14 24 34 43 49 54 57 52
24 22 22 15 9 18 23 24 39 58 62 60 50 43 50 56 55 51 46 41 40 44 45 45 37 25 15 13 14 13 14 15 18 13 4 11 23 33 41 48 51 53 52 49
11 11 20 13 9 16 23 27 38 45 48 42 39 46 50 55 52 51 40 39 44 44 44 38 28 21 17 17 12 15 18 22 13 2 10 21 29 36 43 50 54 51 48 47
15 13 10 17 15 21 25 34 45 46 44 48 51 51 53 53 45 42 40 49 46 43 40 36 29 22 16 15 15 23 25 13 2 7 16 23 31 39 46 52 52 47 43 45
17 5 3 4 9 17 28 40 50 53 53 53 56 56 54 52 45 46 50 50 47 44 37 31 25 19 18 21 31 29 14 5 7 12 18 27 34 40 48 49 48 44 44 44
Wind_Direction_850mb
220 227 201 197 192 185 205 221 224 304 246 279 283 270 200 193 186 177 167 163 165 161 157 154 149 146 144 140 138 142 148 151 152 154 158 162 163 175 207 235 260 282 292 298
223 204 205 232 210 201 231 253 253 266 277 273 286 273 195 188 182 181 175 170 169 163 158 158 157 153 148 146 147 149 150 149 150 157 155 157 169 199 237 261 282 287 291 299
228 166 162 217 227 215 226 216 233 226 248 270 264 253 226 208 191 180 180 174 170 167 165 165 163 159 154 148 144 145 148 152 152 152 149 135 140 151 288 298 297 295 297 305
121 170 198 121 219 201 222 250 248 256 256 262 276 278 227 202 194 192 183 176 174 171 170 168 164 155 156 150 149 149 143 143 152 159 119 79 38 3 321 306 304 301 302 305
186 202 325 209 179 210 224 278 265 258 285 298 266 222 245 204 197 195 190 183 178 175 172 168 164 164 161 154 153 150 146 150 147 121 13 1 339 331 319 309 308 293 94 66
160 211 222 189 139 122 207 254 83 345 303 290 198 226 230 192 188 187 186 178 175 172 170 169 169 168 165 161 161 162 166 176 179 353 328 326 329 330 351 40 96 91 25 19
167 235 270 187 157 146 203 277 335 309 295 257 219 283 313 190 178 177 181 182 178 174 176 177 171 170 171 169 174 181 183 193 194 274 274 321 344 28 65 81 105 41 28 5
152 213 244 148 140 207 26 321 313 313 301 265 239 273 310 190 178 176 183 184 181 180 183 181 179 177 180 182 189 186 190 199 226 227 294 325 38 63 57 31 1 334 318 306
223 247 131 197 246 240 303 305 321 322 319 293 252 240 262 195 190 182 185 186 187 189 188 185 185 187 189 186 189 191 190 197 214 256 252 140 125 63 40 351 335 328 317 312
286 218 252 256 253 263 277 298 321 313 309 294 273 252 240 203 184 181 182 188 190 189 191 186 188 185 195 191 183 184 190 204 228 224 161 149 114 68 27 358 333 324 321 321
265 276 284 277 279 272 279 297 321 328 321 294 288 242 227 205 198 194 191 195 192 191 192 183 192 188 180 181 181 186 197 203 202 168 126 109 74 30 32 8 350 341 327 324
262 354 291 333 349 325 330 339 330 319 335 279 264 254 211 205 199 198 196 197 192 187 180 150 145 196 179 176 181 193 189 182 164 139 120 88 63 66 11 9 344 331 328 330
266 290 298 289 297 310 327 356 9 342 331 326 261 224 214 210 204 203 197 194 189 181 149 166 170 178 172 178 187 181 161 164 148 126 90 67 86 352 348 341 339 331 331 337
276 274 276 259 265 257 324 15 20 18 30 57 231 208 207 204 185 181 188 178 156 144 161 165 154 168 168 172 171 162 150 140 132 103 58 34 341 325 350 339 323 322 334 341
281 267 268 246 256 253 263 35 10 2 11 50 167 179 178 172 166 160 160 142 145 145 161 170 167 172 160 155 148 145 140 131 125 134 332 294 302 280 342 334 317 318 327 331
313 315 288 237 237 239 256 256 268 290 341 160 162 170 158 155 150 148 144 146 160 165 170 173 167 154 152 149 148 146 135 116 98 70 16 7 69 352 321 314 320 316 320 326
269 265 284 256 235 249 259 254 239 237 195 174 164 147 139 139 141 145 140 139 143 161 175 175 166 156 152 151 146 149 133 119 77 64 105 87 356 327 310 320 320 318 318 320
256 258 261 258 264 260 233 216 204 196 175 163 156 158 158 163 166 169 171 165 157 171 185 178 176 159 157 154 150 141 137 97 44 95 90 9 342 325 319 325 325 322 324 324
247 235 233 233 229 220 190 187 186 181 177 171 178 187 193 198 197 200 183 184 193 180 179 174 165 162 158 159 152 137 137 83 63 93 28 347 357 354 350 341 336 331 334 335
293 221 209 210 196 200 190 179 177 183 178 181 167 170 178 192 192 187 183 180 182 186 180 172 169 164 164 170 167 170 176 109 76 78 354 347 5 359 358 6 5 355 340 334
25 308 208 199 206 203 205 195 185 179 170 174 173 156 141 139 172 190 181 182 184 180 180 178 170 171 180 186 195 221 201 269 155 168 343 34 48 36 19 2 352 342 334 331
14 25 331 206 202 221 220 212 198 190 195 197 192 183 175 177 184 182 187 190 182 181 181 177 174 176 183 195 195 200 247 227 170 160 93 75 43 6 350 345 341 339 337 337
356 3 17 298 204 210 216 204 205 201 201 201 199 202 202 205 191 178 187 190 190 181 178 177 176 181 186 186 210 199 159 172 160 127 109 46 349 344 340 339 341 343 341 337
358 356 349 353 270 210 176 181 186 202 209 210 208 207 192 182 181 187 191 189 186 179 175 176 180 183 184 190 163 160 173 166 142 131 73 348 343 340 339 337 339 339 339 340
344 342 350 330 275 222 176 173 188 188 196 202 189 178 180 183 182 183 186 182 179 178 178 177 182 187 185 174 166 183 170 154 146 121 340 343 339 336 336 337 340 337 339 340
330 335 314 324 257 214 189 176 181 177 180 177 173 177 179 182 187 186 180 175 175 181 182 182 183 182 181 178 183 169 156 151 134 338 334 333 332 334 337 341 339 338 339 342
349 357 335 316 222 198 198 183 179 177 181 180 176 177 179 181 183 187 177 176 173 174 174 174 173 175 180 177 166 160 162 203 294 319 321 325 332 336 339 344 344 343 342 343